Weather in Buturlinka

Russia / Saratov Oblast     52°21′15″N   44°30′47″E
В апреле 2022 года жителям России запретили посещать сайт meteo.paraplan.net по решению Генеральной прокуратуры. Аудитория сайта уменьшилась в 10 раз. Владельцы сайта не видят смысла в поддержке погодного сервера в таких условиях. Сайт будет закрыт в октябре.
temp.,
°C
wind,
m/s
gust,
m/s
humid.,
%
clouds,
%
prec.,
mm/h
press.,
hPa
HPBL,
m
30 september, fri
fri3001:00+11n2288100 0.0 101724
04:00+11nne228995 0.0 101813
07:00+10ene1189100 0.0 101910
10:00+14ese2273100 0.0 1020274
13:00+17se2259100 0.0 1021745
16:00+18sse2253100 0.0 1020951
19:00+15sse2264100 0.0 102111
22:00+14sse3369100 0.0 102134
1 october, sat
sat101:00+14s237299 0.0 102167
04:00+14sse358070 0.0 1022108
07:00+12s368942 0.0 102292
10:00+16sse4672100 0.0 1021328
13:00+20s5757100 0.0 1020925
16:00+18sse3763100 0.0 1019352
19:00+17sse4106651 0.0 1018284
22:00+15s5127765 0.3 1017274
2 october, sun
sun201:00+14s51484100 0.7 1015330
04:00+14s51288100 1.9 1014296
07:00+13s499376 1.1 1014195
10:00+17ssw5780100 2.7 1013383
13:00+20ssw5665100 0.0 1013855
16:00+20ssw4671100 1.8 1012474
19:00+17sse4784100 2.5 1011166
22:00+16sse4128481 3.8 1010282
3 october, mon
mon301:00+16sse6157892 0.3 1008344
04:00+16sse61672100 0.3 1007375
07:00+15se81763100 0.0 1007476
10:00+16sse101859100 0.0 1007909
13:00+19sse111652100 0.0 10081277
16:00+18sse111852100 0.0 10081247
19:00+18sse101847100 0.0 10091351
22:00+16s71367100 0.8 10111145
4 october, tue
tue401:00+13sse61184100 4.8 1012888
04:00+11sse71293100 11.1 1014617
07:00+12ssw3492100 2.5 1015305
10:00+13sw2372100 2.8 1017533
13:00+15ssw3456100 0.0 10181195
16:00+15s3453100 0.0 10191403
19:00+12se477841 0.1 1021133
22:00+11sse489299 0.2 1022274